[[{"header":{"parameterUnit":"m.s-1","parameterCategory":1,"la1":30.2991,"la2":30.254,"lo1":-89.0895,"lo2":-89.0444,"dy":0.0017,"dx":0.0017,"nx":28,"ny":28,"refTime":"2025-09-10T21:00:00:Z","depth":0,"parameterNumber":2,"parameterNumberName":"U-component_of_WINDS"},"data":[0,0,0,0,0,0,0,0,0,0,0,0,0,0,0,0,0,0,0,0,0,0,0,0,0,0,0,0,0,0,0,0,0,0,0,0,0,0,0,0,0,0,0,0,0,0,0,0,0,0,0,0,0,0,0,0,0,0,-0.0932,-0.0934,0,-0.1081,-0.1082,-0.1084,-0.1138,-0.1138,-0.1137,-0.1137,-0.1292,-0.1296,-0.1301,0,0,0,0,0,0,0,0,0,0,0,0,0,-0.0699,-0.0703,-0.0932,-0.0934,-0.0936,-0.108,-0.1082,-0.1084,-0.1138,-0.1138,-0.1137,-0.1136,-0.129,-0.1296,-0.1301,0,0,0,0,0,0,0,0,0,0,0,0,0,-0.0819,-0.0704,-0.0932,-0.098,-0.0986,-0.108,-0.1082,-0.1085,-0.1138,-0.1138,-0.1137,-0.1136,-0.1289,-0.1295,-0.1302,-0.136,0,0,-0.1323,-0.1326,0,0,0,0,0,0,0,0,-0.0812,-0.0828,-0.0971,-0.0977,-0.0983,-0.109,-0.1057,-0.1177,-0.1139,-0.108,-0.1137,-0.1136,-0.1226,-0.1238,-0.1267,-0.1368,-0.1374,-0.1324,-0.1328,-0.1331,-0.1333,0,0,0,0,0,0,0,-0.0804,-0.0822,-0.0991,-0.0973,-0.0981,-0.0996,-0.1012,-0.108,-0.1156,-0.1085,-0.109,-0.1106,-0.1229,-0.126,-0.1271,-0.1377,-0.1324,-0.133,-0.1334,-0.1337,-0.1534,-0.1535,0,0,0,0,0,0,-0.0787,-0.0814,-0.0986,-0.0995,-0.0894,-0.1,-0.1018,-0.1057,-0.1155,-0.1169,-0.1107,-0.1108,-0.1249,-0.1263,-0.1277,-0.1352,-0.1331,-0.1338,-0.1342,-0.1533,-0.1534,-0.1535,0,0,0,0,0,0,-0.0782,-0.0802,-0.098,-0.0906,-0.093,-0.1005,-0.1048,-0.106,-0.1092,-0.1171,-0.1185,-0.1125,-0.1249,-0.1267,-0.1339,-0.1358,-0.1341,-0.1347,-0.1531,-0.1533,-0.1535,-0.1503,0,0,0,0,0,0,-0.0775,-0.08,-0.0821,-0.0906,-0.0934,-0.1038,-0.1049,-0.1063,-0.1103,-0.1106,-0.1192,-0.1205,-0.125,-0.1329,-0.1346,-0.1368,-0.1352,-0.153,-0.1532,-0.1534,-0.1502,-0.1503,-0.1504,0,0,0,0,0,-0.0766,-0.0807,-0.0822,-0.0843,-0.0962,-0.1039,-0.1055,-0.1105,-0.1104,-0.1127,-0.1179,-0.1203,-0.1354,-0.1336,-0.1356,-0.138,-0.1529,-0.1532,-0.1534,-0.1502,-0.1503,-0.1504,0,0,0,0,0,0,-0.0723,-0.0819,-0.0837,-0.0906,-0.0964,-0.1048,-0.1079,-0.1104,-0.1164,-0.1165,-0.1225,-0.1244,-0.1311,-0.1353,-0.1331,-0.1442,-0.1443,-0.145,-0.1412,-0.1413,-0.1414,-0.1402,-0.1358,0,0,0,0,0,-0.0721,-0.0775,-0.0856,-0.0909,-0.0938,-0.1003,-0.1039,-0.1072,-0.1135,-0.116,-0.1217,-0.1278,-0.134,-0.1379,-0.144,-0.1509,-0.1529,-0.1536,-0.1536,-0.1536,-0.1541,-0.1582,-0.1586,-0.1543,-0.1543,-0.1543,0,0,-0.0719,-0.0778,-0.0808,-0.0902,-0.0951,-0.1007,-0.1024,-0.1081,-0.1124,-0.1169,-0.1241,-0.1284,-0.1357,-0.1428,-0.1462,-0.1465,-0.1558,-0.1539,-0.1539,-0.1544,-0.1585,-0.1589,-0.1593,-0.1545,-0.1545,-0.1544,0,0,-0.0742,-0.0792,-0.0842,-0.0891,-0.0964,-0.1008,-0.102,-0.1101,-0.1132,-0.1204,-0.124,-0.1292,-0.1396,-0.1447,-0.1486,-0.153,-0.1555,-0.1549,-0.1552,-0.1591,-0.1594,-0.1598,-0.1614,-0.1619,-0.1554,-0.1554,-0.1554,0,-0.073,-0.0814,-0.0865,-0.0921,-0.0962,-0.1005,-0.1057,-0.1102,-0.1193,-0.1221,-0.1222,-0.1355,-0.1407,-0.1491,-0.1501,-0.1532,-0.1548,-0.1539,-0.159,-0.1593,-0.1597,-0.1614,-0.162,-0.1552,-0.1552,-0.1553,-0.1553,0,-0.0795,-0.0853,-0.0885,-0.097,-0.1015,-0.1068,-0.1129,-0.1168,-0.1198,-0.1242,-0.1316,-0.138,-0.1455,-0.1477,-0.1507,-0.1566,-0.1566,-0.1578,-0.158,-0.1599,-0.1616,-0.1622,-0.1551,-0.1551,-0.1551,-0.1552,0,0,-0.0795,-0.0908,-0.0919,-0.0959,-0.1044,-0.109,-0.1147,-0.1219,-0.1252,-0.1314,-0.1363,-0.1451,-0.1463,-0.1508,-0.1544,-0.1578,-0.161,-0.1587,-0.1589,-0.1589,-0.1681,-0.1671,-0.1677,-0.1627,-0.1629,-0.163,-0.1675,0,-0.083,-0.0931,-0.0979,-0.106,-0.1115,-0.1157,-0.1207,-0.1265,-0.1308,-0.1362,-0.1411,-0.1472,-0.1483,-0.151,-0.1546,-0.1598,-0.1629,-0.1596,-0.1675,-0.1677,-0.1655,-0.1686,-0.1676,-0.1715,-0.1681,-0.1683,-0.1683,0,-0.0884,-0.0944,-0.1029,-0.1109,-0.1134,-0.1177,-0.1249,-0.1299,-0.1367,-0.1396,-0.1446,-0.1482,-0.1544,-0.1542,-0.1631,-0.1607,-0.1642,-0.1673,-0.1676,-0.1685,-0.1681,-0.1696,-0.1728,-0.1734,-0.1694,-0.1693,-0.1692,0,-0.0875,-0.0978,-0.1043,-0.1075,-0.117,-0.12,-0.1241,-0.1308,-0.1349,-0.1412,-0.1439,-0.1509,-0.1547,-0.1601,-0.1654,-0.1648,-0.1737,-0.174,-0.1764,-0.1763,-0.1781,-0.1779,-0.1819,-0.1804,-0.1804,-0.1803,-0.1803,0,-0.0909,-0.096,-0.104,-0.108,-0.1139,-0.1195,-0.1252,-0.1297,-0.1356,-0.1407,-0.1449,-0.1496,-0.1563,-0.1619,-0.1662,-0.1729,-0.1746,-0.1772,-0.1783,-0.1768,-0.1765,-0.1792,-0.1791,-0.1805,-0.1805,-0.1804,-0.1804,0,-0.0909,-0.0965,-0.1038,-0.1122,-0.1144,-0.1184,-0.1257,-0.1298,-0.1343,-0.1407,-0.1425,-0.1497,-0.1565,-0.1623,-0.1713,-0.1742,-0.1811,-0.1824,-0.1788,-0.1794,-0.1815,-0.1812,-0.1874,-0.1886,-0.1862,-0.1862,-0.1862,0,-0.0926,-0.0967,-0.1054,-0.1091,-0.1131,-0.1189,-0.1231,-0.1288,-0.1331,-0.1412,-0.1444,-0.1514,-0.1574,-0.1681,-0.1742,-0.1812,-0.1827,-0.1844,-0.1837,-0.1822,-0.1828,-0.1824,-0.1829,-0.1844,-0.1844,-0.1844,-0.1844,0,-0.0952,-0.0978,-0.1036,-0.1104,-0.1153,-0.121,-0.1268,-0.1296,-0.1365,-0.141,-0.148,-0.1526,-0.1618,-0.1688,-0.1765,-0.1809,-0.1838,-0.1845,-0.1855,-0.184,-0.1818,-0.1831,-0.1788,-0.1844,-0.1844,-0.1844,-0.1844,-0.1844,-0.0962,-0.1,-0.1068,-0.1132,-0.1182,-0.1235,-0.1278,-0.1329,-0.1387,-0.1466,-0.1497,-0.1568,-0.1637,-0.1742,-0.1787,-0.1845,-0.1849,-0.1863,-0.1866,-0.1869,-0.1866,-0.1808,-0.1859,-0.1859,-0.1859,-0.1859,-0.1859,0,-0.099,-0.1036,-0.1094,-0.1174,-0.1225,-0.1247,-0.1313,-0.1354,-0.1416,-0.1477,-0.1535,-0.1616,-0.1685,-0.1751,-0.1824,-0.1858,-0.1873,-0.1875,-0.1873,-0.1883,-0.1858,-0.1843,-0.1861,-0.1861,-0.1861,-0.1861,-0.1861,-0.1861,-0.1011,-0.1076,-0.111,-0.1202,-0.1248,-0.1317,-0.1353,-0.1404,-0.1453,-0.1541,-0.1598,-0.164,-0.1705,-0.1782,-0.1847,-0.1865,-0.189,-0.1888,-0.191,-0.1885,-0.1884,-0.1883,-0.1869,-0.1893,-0.1893,-0.193,-0.193,-0.1931]},{"header":{"parameterUnit":"m.s-1","parameterCategory":1,"la1":30.2991,"la2":30.254,"lo1":-89.0895,"lo2":-89.0444,"dy":0.0017,"dx":0.0017,"nx":28,"ny":28,"refTime":"2025-09-10T21:00:00:Z","depth":0,"parameterNumber":3,"parameterNumberName":"V-component_of_WINDS"},"data":[0,0,0,0,0,0,0,0,0,0,0,0,0,0,0,0,0,0,0,0,0,0,0,0,0,0,0,0,0,0,0,0,0,0,0,0,0,0,0,0,0,0,0,0,0,0,0,0,0,0,0,0,0,0,0,0,0,0,-2.3514,-2.3514,0,-2.3507,-2.3507,-2.3507,-2.3453,-2.3452,-2.3451,-2.3449,-2.3443,-2.3444,-2.3445,0,0,0,0,0,0,0,0,0,0,0,0,0,-2.348,-2.3481,-2.3514,-2.3514,-2.3513,-2.3507,-2.3507,-2.3507,-2.3453,-2.3452,-2.345,-2.3449,-2.3443,-2.3444,-2.3445,0,0,0,0,0,0,0,0,0,0,0,0,0,-2.3486,-2.3481,-2.3514,-2.3486,-2.3483,-2.3507,-2.3507,-2.3507,-2.3454,-2.3452,-2.345,-2.3448,-2.3443,-2.3444,-2.3446,-2.3495,0,0,-2.3451,-2.3451,0,0,0,0,0,0,0,0,-2.3486,-2.3488,-2.349,-2.3488,-2.3485,-2.3479,-2.3493,-2.3503,-2.3454,-2.3465,-2.3449,-2.3447,-2.3457,-2.3457,-2.346,-2.3495,-2.3495,-2.3451,-2.3452,-2.3452,-2.3453,0,0,0,0,0,0,0,-2.3486,-2.3488,-2.3511,-2.349,-2.3487,-2.3474,-2.3473,-2.3494,-2.3472,-2.3464,-2.346,-2.346,-2.3455,-2.3459,-2.346,-2.3495,-2.3451,-2.3452,-2.3453,-2.3454,-2.3569,-2.3571,0,0,0,0,0,0,-2.3489,-2.3488,-2.3511,-2.3511,-2.3481,-2.3476,-2.3475,-2.3483,-2.3472,-2.3468,-2.3462,-2.3458,-2.3457,-2.3458,-2.3459,-2.3516,-2.3452,-2.3454,-2.3455,-2.3567,-2.357,-2.3572,0,0,0,0,0,0,-2.3488,-2.3492,-2.3511,-2.3498,-2.35,-2.3479,-2.3489,-2.3484,-2.3488,-2.347,-2.3466,-2.347,-2.3456,-2.3457,-2.3487,-2.3516,-2.3455,-2.3456,-2.3565,-2.3568,-2.3571,-2.3632,0,0,0,0,0,0,-2.3488,-2.3492,-2.3511,-2.3499,-2.35,-2.3539,-2.349,-2.3485,-2.349,-2.3485,-2.3476,-2.3473,-2.3454,-2.3485,-2.3488,-2.3517,-2.3457,-2.3562,-2.3566,-2.357,-2.3627,-2.3636,-2.3645,0,0,0,0,0,-2.3487,-2.3528,-2.3512,-2.3515,-2.3524,-2.3541,-2.3542,-2.3519,-2.3493,-2.3512,-2.35,-2.3473,-2.3512,-2.3488,-2.3492,-2.3521,-2.356,-2.3565,-2.357,-2.3623,-2.3635,-2.3644,0,0,0,0,0,0,-2.3544,-2.3526,-2.3508,-2.3547,-2.3546,-2.3532,-2.3555,-2.3532,-2.3539,-2.3533,-2.3504,-2.3503,-2.3537,-2.3532,-2.3506,-2.3568,-2.3531,-2.3537,-2.357,-2.3581,-2.359,-2.3591,-2.3459,0,0,0,0,0,-2.3561,-2.3577,-2.356,-2.3596,-2.3596,-2.3576,-2.3582,-2.3565,-2.3563,-2.3562,-2.3553,-2.3552,-2.3564,-2.3572,-2.3582,-2.3626,-2.3623,-2.3648,-2.3656,-2.3664,-2.3669,-2.3692,-2.3702,-2.3588,-2.3588,-2.3588,0,0,-2.3597,-2.3589,-2.3601,-2.3607,-2.3605,-2.3621,-2.3576,-2.3596,-2.3608,-2.3565,-2.3592,-2.3586,-2.3583,-2.362,-2.3635,-2.3616,-2.37,-2.367,-2.3676,-2.3677,-2.3698,-2.3709,-2.3718,-2.3591,-2.359,-2.359,0,0,-2.3671,-2.3666,-2.3695,-2.3693,-2.3689,-2.3675,-2.3682,-2.3671,-2.3665,-2.3692,-2.366,-2.3674,-2.3695,-2.3694,-2.3697,-2.3769,-2.3745,-2.3773,-2.3819,-2.3842,-2.3851,-2.3858,-2.3884,-2.3894,-2.3778,-2.3779,-2.3779,0,-2.3716,-2.374,-2.3713,-2.3735,-2.3739,-2.37,-2.373,-2.3729,-2.3729,-2.3732,-2.3711,-2.3736,-2.3731,-2.3767,-2.3785,-2.3788,-2.3795,-2.3774,-2.3851,-2.3859,-2.3866,-2.389,-2.39,-2.3782,-2.3782,-2.3781,-2.3781,0,-2.3795,-2.3812,-2.3836,-2.3836,-2.3842,-2.3868,-2.3845,-2.3855,-2.3836,-2.3825,-2.3852,-2.3845,-2.3853,-2.386,-2.3842,-2.3893,-2.3882,-2.3856,-2.3819,-2.3881,-2.3903,-2.3912,-2.3787,-2.3786,-2.3785,-2.3784,0,0,-2.3906,-2.389,-2.3899,-2.3899,-2.3891,-2.3904,-2.3927,-2.3934,-2.3943,-2.3944,-2.3962,-2.3981,-2.3957,-2.396,-2.3941,-2.3961,-2.4019,-2.3933,-2.3932,-2.3949,-2.4074,-2.4094,-2.4105,-2.4002,-2.4004,-2.4005,-2.4075,0,-2.3977,-2.4015,-2.3992,-2.4035,-2.405,-2.4013,-2.4033,-2.4031,-2.402,-2.4031,-2.4019,-2.4033,-2.4,-2.4002,-2.4019,-2.4008,-2.4043,-2.4002,-2.402,-2.4021,-2.4022,-2.4117,-2.4137,-2.4203,-2.4083,-2.4085,-2.4086,0,-2.4065,-2.4069,-2.4113,-2.4101,-2.4107,-2.4125,-2.4129,-2.4141,-2.4137,-2.4128,-2.413,-2.4107,-2.4129,-2.4092,-2.4122,-2.4095,-2.41,-2.4096,-2.4098,-2.4099,-2.4057,-2.4121,-2.4224,-2.4234,-2.4099,-2.4098,-2.4097,0,-2.4141,-2.4157,-2.4186,-2.4186,-2.4174,-2.4187,-2.4183,-2.4177,-2.4183,-2.4186,-2.4189,-2.4196,-2.42,-2.4205,-2.4184,-2.4159,-2.4217,-2.4178,-2.4211,-2.4211,-2.4225,-2.4225,-2.4331,-2.4228,-2.4228,-2.4228,-2.4228,0,-2.4223,-2.4251,-2.422,-2.4237,-2.4268,-2.424,-2.4271,-2.4263,-2.4258,-2.4273,-2.4242,-2.4257,-2.4228,-2.424,-2.4224,-2.4251,-2.4253,-2.4246,-2.4242,-2.425,-2.425,-2.4253,-2.4248,-2.423,-2.423,-2.4229,-2.4229,0,-2.4314,-2.4294,-2.4322,-2.4307,-2.4304,-2.4328,-2.4315,-2.4331,-2.4317,-2.4337,-2.434,-2.4319,-2.4332,-2.4311,-2.4322,-2.4311,-2.4349,-2.4337,-2.435,-2.4347,-2.4381,-2.4378,-2.4493,-2.4507,-2.4395,-2.4396,-2.4397,0,-2.4368,-2.4389,-2.4376,-2.4384,-2.4381,-2.4393,-2.4398,-2.4372,-2.4379,-2.4376,-2.4392,-2.4401,-2.4408,-2.4429,-2.4416,-2.4423,-2.4412,-2.4451,-2.4413,-2.442,-2.4413,-2.4412,-2.4414,-2.446,-2.4461,-2.4462,-2.4463,0,-2.4466,-2.4454,-2.4463,-2.4468,-2.4474,-2.4477,-2.4477,-2.4486,-2.4458,-2.4467,-2.4479,-2.4484,-2.4494,-2.4504,-2.4508,-2.4503,-2.4479,-2.4475,-2.4483,-2.4491,-2.4498,-2.4495,-2.4372,-2.4473,-2.4472,-2.4471,-2.4471,-2.447,-2.454,-2.4557,-2.455,-2.456,-2.4557,-2.4558,-2.4572,-2.456,-2.4569,-2.4575,-2.4559,-2.4575,-2.457,-2.4572,-2.457,-2.4583,-2.4565,-2.4577,-2.458,-2.4583,-2.4589,-2.4496,-2.4583,-2.4583,-2.4583,-2.4582,-2.4582,0,-2.4636,-2.463,-2.4639,-2.464,-2.4649,-2.4624,-2.4622,-2.4631,-2.4645,-2.4642,-2.4649,-2.4663,-2.4672,-2.4659,-2.4666,-2.4678,-2.4667,-2.4681,-2.468,-2.468,-2.4604,-2.4596,-2.469,-2.469,-2.469,-2.469,-2.469,-2.469,-2.4688,-2.4714,-2.4702,-2.4727,-2.472,-2.4735,-2.4736,-2.4737,-2.4734,-2.4751,-2.4758,-2.4749,-2.4742,-2.4748,-2.4756,-2.4752,-2.4756,-2.4774,-2.4766,-2.4695,-2.4685,-2.4675,-2.4668,-2.4775,-2.4775,-2.4841,-2.4841,-2.4842]}]]